Weather History for KJST - December, 2012

Change the Weather History Date:

Wednesday, December 12, 2012

  Actual Average Record
Temperature  
Mean Temperature 30 °F 29 °F  
Max Temperature 34 °F 36 °F 67 °F (1979)
Min Temperature 26 °F 23 °F -1 °F (1988)
Degree Days  
Heating Degree Days 35 36  
Month to date heating degree days 409  
Since 1 July heating degree days 1866  
Cooling Degree Days 0 0  
Month to date cooling degree days 0  
Year to date cooling degree days 382  
Moisture  
Dew Point 20 °F    
Average Humidity 72    
Maximum Humidity 86    
Minimum Humidity 54    
Precipitation  
Precipitation 0.00 in 0.08 in 0.98 in (1970)
Month to date precipitation 1.05  
Year to date precipitation 32.10  
Sea Level Pressure  
Sea Level Pressure 30.34 in    
Wind  
Wind Speed 7 mph (West)    
Max Wind Speed 12 mph    
Max Gust Speed 17 mph    
Visibility 10 miles    
Events      
T = Trace of Precipitation, MM = Missing Value Source: NWS Daily Summary

Daily Weather History Graph

Daily Weather History Graph

Search for Another Location

Airport or City:

Trip Planner

Search our weather history database for the weather conditions in past years. The results will help you decide how hot, cold, wet, or windy it might be!

Date:

Astronomy

Dec. 12, 2012 Rise Set
Actual Time 7:29 AM EST 4:49 PM EST
Civil Twilight 6:58 AM EST 5:20 PM EST
Nautical Twilight 6:24 AM EST 5:54 PM EST
Astronomical Twilight 5:51 AM EST 6:27 PM EST
Moon 6:31 AM EST (12/12) 4:24 PM EST (12/12)
Length of Visible Light 10h 21m
Length of Day
9h 20m
Waning Crescent, 1% of the Moon is Illuminated
Dec 12
Waning Crescent
Dec 13
New
Dec 20
First Quarter
Dec 28
Full
Jan 4
Last Quarter

Hourly Weather History & Observations

Time (EST) Temp. Windchill Dew Point Humidity Pressure Visibility Wind Dir Wind Speed Gust Speed Precip Events Conditions
12:39 AM 28.4 °F 20.4 °F 23.0 °F 80% 30.14 in 10.0 mi West 8.1 mph - N/A   Mostly Cloudy
12:47 AM 28.4 °F 20.4 °F 23.0 °F 80% 30.14 in 10.0 mi West 8.1 mph - N/A   Scattered Clouds
12:54 AM 27.0 °F 18.7 °F 23.0 °F 85% 30.22 in 10.0 mi West 8.1 mph - N/A   Scattered Clouds
1:26 AM 28.4 °F 20.4 °F 24.8 °F 86% 30.15 in 10.0 mi West 8.1 mph - N/A   Mostly Cloudy
1:54 AM 28.0 °F 18.6 °F 24.1 °F 85% 30.24 in 10.0 mi West 10.4 mph - N/A   Overcast
2:54 AM 28.0 °F 18.1 °F 21.0 °F 75% 30.26 in 10.0 mi WNW 11.5 mph 17.3 mph N/A   Overcast
3:54 AM 27.0 °F 18.0 °F 21.0 °F 78% 30.29 in 10.0 mi West 9.2 mph - N/A   Overcast
4:54 AM 27.0 °F 18.7 °F 21.0 °F 78% 30.31 in 10.0 mi West 8.1 mph - N/A   Overcast
5:54 AM 26.1 °F 18.4 °F 21.0 °F 81% 30.32 in 10.0 mi WNW 6.9 mph - N/A   Overcast
6:54 AM 26.1 °F 16.8 °F 19.9 °F 78% 30.35 in 10.0 mi West 9.2 mph - N/A   Overcast
8:54 AM 26.1 °F 16.8 °F 21.0 °F 81% 30.39 in 10.0 mi WNW 9.2 mph - N/A   Overcast
9:08 AM 26.6 °F 18.2 °F 21.2 °F 80% 30.31 in 10.0 mi WNW 8.1 mph - N/A   Overcast
9:54 AM 27.0 °F 18.7 °F 21.0 °F 78% 30.40 in 10.0 mi West 8.1 mph - N/A   Mostly Cloudy
10:08 AM 28.4 °F 19.1 °F 21.2 °F 74% 30.33 in 10.0 mi West 10.4 mph - N/A   Mostly Cloudy
10:21 AM 28.4 °F 20.4 °F 21.2 °F 74% 30.32 in 10.0 mi West 8.1 mph - N/A   Scattered Clouds
10:54 AM 28.9 °F 21.9 °F 21.0 °F 72% 30.40 in 10.0 mi WSW 6.9 mph - 0.00 in   Clear
12:54 PM 32.0 °F 24.8 °F 21.0 °F 64% 30.37 in 10.0 mi WNW 8.1 mph - N/A   Clear
1:54 PM 34.0 °F 27.2 °F 19.9 °F 56% 30.38 in 10.0 mi NW 8.1 mph - 0.00 in   Clear
2:54 PM 34.0 °F 31.0 °F 19.9 °F 56% 30.38 in 10.0 mi NW 3.5 mph - N/A   Clear
3:54 PM 34.0 °F 29.8 °F 19.0 °F 54% 30.38 in 10.0 mi NW 4.6 mph - N/A   Clear
4:54 PM 30.9 °F 26.2 °F 18.0 °F 59% 30.39 in 10.0 mi NW 4.6 mph - N/A   Clear
5:54 PM 30.0 °F 26.5 °F 17.1 °F 59% 30.41 in 10.0 mi NW 3.5 mph - N/A   Clear
7:54 PM 28.9 °F - 17.1 °F 61% 30.41 in 10.0 mi Calm Calm - N/A   Clear
8:54 PM 28.0 °F - 17.1 °F 63% 30.43 in 10.0 mi Calm Calm - N/A   Clear
9:54 PM 28.0 °F - 17.1 °F 63% 30.45 in 10.0 mi Calm Calm - N/A   Clear
10:54 PM 27.0 °F - 17.1 °F 66% 30.45 in 10.0 mi Calm Calm - N/A   Clear
11:54 PM 27.0 °F - 17.1 °F 66% 30.43 in 10.0 mi Calm Calm - N/A   Clear